Regional Weather Roundup
Issued by NWS

Home | Current Version | Previous Version | Graphics & Text | Print | Product List | Glossary On
Versions: 1 2 3 4 5 6 7 8 9 10 11 12 13 14 15 16 17 18 19 20 21 22 23 24 25 26 27 28 29 30 31 32 33 34 35 36 37 38 39 40 41 42 43 44 45 46 47 48 49 50
000
ASUS43 KDMX 241407
RWRIA

WEATHER ROUNDUP FOR IOWA
NATIONAL WEATHER SERVICE DES MOINES IA
900 AM CDT SUN MAY 24 2015

NOTE: "FAIR" INDICATES FEW OR NO CLOUDS BELOW 12,000 FEET WITH NO
SIGNIFICANT WEATHER AND/OR OBSTRUCTIONS TO VISIBILITY.

* - THESE STATIONS ARE NOT NWS STATIONS...THUS NOT UNDER NWS
QUALITY CONTROL.  THEY ALSO DO NOT REPORT WEATHER SUCH
AS PRECIPITATION OR FOG.

IAZ001>003-012>014-020>022-031>034-043>046-241500-
   NORTHWEST IOWA

CITY           SKY/WX    TMP DP  RH WIND       PRES   REMARKS
CARROLL *      CLOUDY    59  59 100 E14G20    29.90F FOG
CHEROKEE *     CLOUDY    59  59 100 E14G20    29.92F
DENISON *      CLOUDY    59  59 100 E8        29.88F FOG
LE MARS *      CLOUDY    61  59  94 E12G18    29.92F
ORANGE CITY *  CLOUDY    57  57 100 E9G20     29.93S
SHELDON *      CLOUDY    59  59 100 E17G26    29.93F FOG
SIOUX CITY     LGT RAIN  61  58  90 E9        29.89F FOG
SPENCER        LGT RAIN  59  57  93 E13       29.96F
STORM LAKE *   CLOUDY    57  57 100 E16       29.93F FOG
$$

IAZ055>058-069>071-079>083-090>094-241500-
   SOUTHWEST IOWA

CITY           SKY/WX    TMP DP  RH WIND       PRES   REMARKS
ATLANTIC *     CLOUDY    61  61 100 E6        29.87F FOG
AUDUBON *      DRIZZLE   59  57  94 E8        29.90F
CLARINDA *     CLOUDY    63  63 100 S7        29.88F
COUNCIL BLFS * CLOUDY    61  61 100 E9        29.86F FOG
CRESTON *      CLOUDY    61  61 100 S14G20    29.89F FOG
HARLAN  *      CLOUDY    61  61 100 E7        29.91F FOG
LAMONI         CLOUDY    63  59  87 SE9       29.91S FOG
RED OAK *      LGT RAIN  61  61 100 SE6       29.86F VSB 1
SHENANDOAH *   CLOUDY    63  63 100 SE13      29.85F
$$

IAZ047>049-059>061-072>074-084-241500-
   CENTRAL IOWA

CITY           SKY/WX    TMP DP  RH WIND       PRES   REMARKS
AMES           LGT RAIN  60  58  92 E14       29.94F
ANKENY *       LGT RAIN  61  61 100 SE12G21   29.92F
CHARITON *     LGT RAIN  61  59  94 SE14G22   29.93F
DES MOINES     CLOUDY    63  59  87 SE17G23   29.92F
GRINNELL*      CLOUDY    59  57  94 E15G21    29.99F FOG
KNOXVILLE *    CLOUDY    61  59  94 SE14G23   29.93F
MARSHALLTOWN   HVY RAIN  58  57  97 E16       29.99F VSB 1
PELLA *        CLOUDY    61  61 100 SE12G17   29.97F
PERRY *        RAIN      59  59 100 E13       29.90F
$$

IAZ004>006-015-016-023>025-035-036-241500-
   NORTH CENTRAL IOWA

CITY           SKY/WX    TMP DP  RH WIND       PRES   REMARKS
ALGONA *       LGT RAIN  59  59 100 SE14G22   29.99S
CLARION *      LGT RAIN  59  59 100 E17       29.97F
ESTHERVILLE    CLOUDY    59  57  93 SE12      29.98S
FORT DODGE *   CLOUDY    57  55  94 E14       29.95F
MASON CITY     LGT RAIN  59  57  93 SE17      30.04S
FOREST CITY *  LGT RAIN  57  55  94 SE14G21   30.01S
IOWA FALLS *   RAIN      59  57  94 E20       29.99F
$$

IAZ007>011-017>019-026>030-037>042-050>054-066-241500-
   NORTHEAST IOWA

CITY           SKY/WX    TMP DP  RH WIND       PRES   REMARKS
CEDAR RAPIDS   RAIN      58  58 100 E13       30.03F FOG
CHARLES CITY * MOSUNNY   59  59 100 SE15      30.05S FOG
CLINTON *      CLOUDY    59  55  88 E10       30.13F
DECORAH *      CLOUDY    57  55  94 SE9G15    30.08F FOG
DUBUQUE        LGT RAIN  58  55  90 E10       30.12F FOG
MONTICELLO *   CLOUDY    59  59 100 E13       30.08F
OELWEIN *      CLOUDY    57  57 100 SE17      30.07F FOG
WATERLOO       RAIN      58  57  97 SE14      30.04F FOG
$$

IAZ064-065-067-068-078-241500-
   EAST CENTRAL IOWA

CITY           SKY/WX    TMP DP  RH WIND       PRES   REMARKS
DAVENPORT      LGT RAIN  59  56  89 E12       30.09F
IOWA CITY      RAIN      59  58  96 E8        30.06F FOG
MT. PLEASANT * CLOUDY    61  59  94 E13       30.01F
MUSCATINE *    LGT RAIN  61  59  94 E9        30.05F
QUAD CITIES    CLOUDY    60  57  89 E10       30.07F
$$

IAZ062-063-075>077-085>089-095>099-241500-
   SOUTHEAST IOWA

CITY           SKY/WX    TMP DP  RH WIND       PRES   REMARKS
BURLINGTON     LGT RAIN  62  58  86 E9        30.02F
FAIRFIELD *    LGT RAIN  61  57  88 SE15      30.00F
FORT MADISON * RAIN      61  57  88 E7        30.02F
KEOKUK *       PTSUNNY   63  59  88 SE12G17   29.99F
OSKALOOSA *    LGT RAIN  59  59 100 E16       29.99F
CENTERVILLE *  LGT RAIN  59  59 100 E10       29.96F
OTTUMWA        LGT RAIN  60  59  96 E12       29.98F FOG
WASHINGTON *   LGT RAIN  59  59 100 E20       30.03F
$$

ABBREVIATIONS USED IN REMARKS
   TC - TEMPERATURES IN CELSIUS
  WCI - WIND CHILL INDEX
   HX - HEAT INDEX
  VSB - VISIBILITY
$$



USA.gov is the U.S. government's official web portal to all federal, state and local government web resources and services.